sat.trackr.live / text

‹ back to catalog

STARLINK-2442

NORAD 48106 · 2021-027Q

PAYLOAD ACTIVE UNKNOWN

§ Identity

Operator
Country
US
Launch date
2021-04-07
Launch site
AFETR
Launch vehicle
Mass (kg)
RCS (m²)

Purposes: comms

External: N2YO · Heavens-Above · Gunter

§ Orbital elements

Epoch: 2026-09-19T17:10:37.787232Z

Period
94.01 min
Inclination
53.1605°
Eccentricity
0.0001332
Mean motion
15.31716302 rev/d
Perigee alt
469.8 km
Apogee alt
471.6 km
Semi-major
6,848.8 km
B*
-1.0509e-5
RAAN
329.6967°
Arg perigee
88.1939°
Mean anomaly
271.9215°
Rev number
30,241

§ Raw data

STARLINK-24421 48106U 21027Q   26262.71571513 -.00000692  00000+0 -10509-4 0  99962 48106  53.1605 329.6967 0001332  88.1939 271.9215 15.31716302302416

JSON: /api/v1/satellites/48106 · /tle

For live sub-satellite position, see the globe view (requires WebGL).

§ Visibility from observer

Set your observer location to see the next 7 days of passes ≥ 10°. The values pass through the URL so the page stays shareable.

No JS? Fill the form by hand. The geolocation button needs JavaScript.